GW1491 Weather Reports


Display with metric or nautical units.
time (UTC)temp
F
wind
direction
speed
MPH
gust
MPH
rain 1hr
in
rain 24hr
in
rain mn
in
humidity
%
barometer
mb
20260506235133 56 355 2.0 6.0 0.00 0.00 0.47 67 1012.5
20260506234523 56 9 4.0 4.0 0.00 0.00 0.47 67 1012.5
20260506233939 56 301 2.0 2.0 0.00 0.00 0.47 69 1012.5
20260506233351 57 322 0.0 1.0 0.00 0.00 0.47 69 1012.8
20260506232743 57 316 1.0 2.0 0.00 0.00 0.47 69 1012.8
20260506232149 57 316 0.0 2.0 0.00 0.00 0.47 68 1013.2
20260506231525 57 344 0.0 1.0 0.00 0.00 0.47 67 1013.2
20260506230932 57 303 1.0 2.0 0.00 0.00 0.47 68 1013.5
20260506230329 57 298 3.0 4.0 0.00 0.00 0.47 66 1013.2
20260506225711 57 318 2.0 3.0 0.00 0.00 0.47 66 1013.2
20260506225110 58 317 1.0 1.0 0.00 0.00 0.47 66 1012.8
20260506224517 57 287 2.0 3.0 0.00 0.00 0.47 66 1013.2
20260506223932 58 264 3.0 4.0 0.00 0.00 0.47 65 1013.2
20260506223327 58 327 2.0 2.0 0.00 0.00 0.47 64 1013.2
20260506222722 58 287 2.0 3.0 0.00 0.00 0.47 65 1012.8
20260506222144 59 357 1.0 4.0 0.00 0.00 0.47 64 1012.5
20260506221515 59 340 2.0 2.0 0.00 0.00 0.47 63 1012.8
20260506220917 59 334 1.0 3.0 0.00 0.00 0.47 62 1012.8
20260506220343 59 333 2.0 3.0 0.00 0.00 0.47 62 1012.8
20260506215738 59 324 2.0 4.0 0.00 0.00 0.47 63 1012.5
20260506215141 59 335 2.0 3.0 0.00 0.00 0.47 62 1012.1
20260506214549 59 319 1.0 4.0 0.00 0.00 0.47 61 1012.1
20260506213317 59 287 4.0 6.0 0.00 0.00 0.47 63 1012.1
20260506212713 60 335 2.0 3.0 0.00 0.00 0.47 63 1012.5
20260506212127 60 321 2.0 3.0 0.00 0.00 0.47 64 1012.5
20260506210929 60 4 2.0 3.0 0.00 0.00 0.47 69 1012.1
20260506210347 61 303 1.0 2.0 0.00 0.00 0.47 69 1012.1
20260506204531 61 304 4.0 7.0 0.00 0.00 0.47 65 1011.8
20260506203311 62 307 2.0 2.0 0.00 0.00 0.47 65 1011.8
20260506202713 60 14 1.0 2.0 0.00 0.00 0.47 66 1011.8
20260506201533 60 322 1.0 6.0 0.00 0.00 0.47 68 1011.8
20260506200314 60 308 2.0 4.0 0.00 0.00 0.47 66 1011.8
20260506195752 62 331 1.0 3.0 0.00 0.00 0.47 67 1011.8
20260506194536 61 322 3.0 4.0 0.00 0.00 0.47 67 1011.8
20260506193953 60 39 2.0 3.0 0.00 0.00 0.47 70 1011.8
20260506193353 60 322 3.0 4.0 0.00 0.00 0.47 71 1011.8
20260506192743 59 314 5.0 7.0 0.00 0.00 0.47 71 1012.1
20260506192132 59 345 2.0 3.0 0.00 0.00 0.47 72 1011.8
20260506191543 59 40 2.0 4.0 0.00 0.00 0.47 72 1012.1
20260506190913 59 32 2.0 3.0 0.00 0.00 0.47 72 1011.8
20260506190340 59 325 3.0 3.0 0.00 0.00 0.47 74 1012.1
20260506185719 57 36 2.0 7.0 0.00 0.00 0.47 75 1012.1
20260506184536 58 36 2.0 4.0 0.00 0.00 0.47 77 1012.1
20260506183920 58 328 2.0 3.0 0.00 0.00 0.47 77 1012.1
20260506183330 58 306 1.0 3.0 0.00 0.00 0.47 78 1012.1
20260506182741 58 322 2.0 4.0 0.00 0.00 0.47 77 1012.1
20260506181541 58 317 1.0 2.0 0.00 0.00 0.47 78 1012.1
20260506180936 58 38 2.0 4.0 0.00 0.00 0.47 79 1012.1
20260506180354 58 32 4.0 6.0 0.00 0.00 0.47 79 1011.8
20260506175748 58 342 1.0 1.0 0.00 0.00 0.47 82 1012.1
20260506175127 56 322 1.0 4.0 0.00 0.00 0.47 85 1012.1
20260506174531 56 288 3.0 4.0 0.00 0.00 0.47 88 1012.1
20260506173943 55 302 6.0 7.0 0.00 0.00 0.47 92 1012.5
20260506173318 54 4 2.0 6.0 0.00 0.00 0.47 96 1012.1
20260506172712 54 353 2.0 4.0 0.00 0.00 0.47 99 1012.1
20260506172141 53 321 1.0 7.0 0.00 0.00 0.47 99 1012.5
20260506170953 52 350 4.0 6.0 0.00 0.00 0.47 99 1012.1
20260506170310 53 343 2.0 3.0 0.00 0.00 0.47 99 1012.1
20260506163946 50 329 3.0 10.0 0.00 0.00 0.47 99 1012.1
20260506163334 51 17 1.0 2.0 0.00 0.00 0.47 99 1012.1
20260506162749 52 284 3.0 4.0 0.00 0.00 0.47 99 1012.5
20260506162115 51 328 3.0 3.0 0.00 0.00 0.47 99 1012.1
20260506161546 50 313 1.0 4.0 0.00 0.00 0.47 99 1012.5
20260506160934 50 325 1.0 2.0 0.00 0.00 0.47 99 1012.1
20260506160351 51 44 1.0 3.0 0.00 0.00 0.47 99 1012.1
20260506155712 50 274 1.0 2.0 0.00 0.00 0.47 99 1012.1
20260506155128 51 30 2.0 4.0 0.00 0.00 0.47 99 1012.1
20260506154542 51 33 0.0 2.0 0.00 0.00 0.47 99 1011.5
20260506153930 52 334 1.0 4.0 0.00 0.00 0.47 99 1011.8
20260506153334 51 278 1.0 2.0 0.00 0.00 0.47 99 1011.8
20260506152733 50 359 1.0 2.0 0.00 0.00 0.47 99 1011.5
20260506151533 49 333 3.0 4.0 0.00 0.00 0.47 99 1011.5
20260506150933 49 313 3.0 4.0 0.00 0.00 0.47 99 1011.5
20260506150311 48 350 3.0 6.0 0.00 0.00 0.47 99 1011.5
20260506145750 48 348 3.0 9.0 0.00 0.00 0.47 99 1011.1
20260506145133 48 319 3.0 10.0 0.00 0.00 0.47 99 1011.1
20260506144538 48 5 1.0 4.0 0.00 0.00 0.47 99 1011.1
20260506143929 48 329 1.0 3.0 0.00 0.00 0.47 99 1010.8
20260506143317 49 332 1.0 2.0 0.00 0.00 0.47 99 1010.8
20260506142716 48 333 3.0 8.0 0.00 0.00 0.47 99 1011.1
20260506142117 48 317 1.0 4.0 0.00 0.00 0.47 99 1011.1
20260506141523 48 331 3.0 4.0 0.00 0.00 0.47 99 1010.8
20260506140935 48 325 4.0 6.0 0.00 0.00 0.47 99 1010.8
20260506140343 48 325 4.0 8.0 0.00 0.00 0.47 99 1010.4
20260506135734 48 350 4.0 6.0 0.00 0.00 0.47 99 1010.1
20260506135139 47 12 2.0 4.0 0.00 0.00 0.47 99 1010.1
20260506134512 47 296 3.0 4.0 0.00 0.00 0.47 99 1010.4
20260506133920 47 351 2.0 4.0 0.00 0.00 0.47 99 1010.1
20260506133350 47 290 1.0 6.0 0.00 0.00 0.47 99 1010.1
20260506132744 47 27 0.0 3.0 0.00 0.00 0.46 99 1010.1
20260506132120 47 312 3.0 6.0 0.00 0.00 0.46 99 1010.4
20260506131514 47 19 3.0 9.0 0.00 0.00 0.46 99 1010.1
20260506130920 47 24 3.0 8.0 0.00 0.00 0.46 99 1010.1
20260506125727 47 311 2.0 6.0 0.00 0.00 0.46 99 1009.8
20260506125146 47 3 1.0 3.0 0.00 0.00 0.45 99 1009.8
20260506124511 48 345 2.0 6.0 0.00 0.00 0.45 99 1009.4
20260506123932 48 0 1.0 9.0 0.00 0.00 0.45 99 1009.1
20260506123320 48 309 0.0 2.0 0.00 0.00 0.45 99 1009.1
20260506122715 48 348 3.0 4.0 0.00 0.00 0.45 99 1008.8
20260506122149 48 352 3.0 6.0 0.00 0.00 0.45 99 1009.1
20260506121518 48 6 1.0 3.0 0.00 0.00 0.45 99 1009.1
20260506120310 48 0 0.0 3.0 0.00 0.00 0.45 99 1008.4
20260506115715 48 295 3.0 4.0 0.00 0.00 0.45 99 1008.4
20260506115122 48 352 1.0 3.0 0.00 0.00 0.45 99 1008.4
20260506114533 49 328 3.0 6.0 0.00 0.00 0.45 99 1008.4
20260506113948 49 347 4.0 8.0 0.00 0.00 0.45 99 1008.4
20260506112733 49 343 2.0 6.0 0.00 0.00 0.45 99 1008.1
20260506111515 50 298 1.0 6.0 0.00 0.00 0.45 99 1007.7
20260506110913 50 332 5.0 8.0 0.00 0.00 0.45 99 1007.7
20260506105711 52 312 2.0 4.0 0.00 0.00 0.44 99 1007.4
20260506105146 57 297 4.0 8.0 0.00 0.00 0.43 99 1007.4
20260506103921 57 276 1.0 2.0 0.00 0.00 0.42 99 1007.1
20260506103351 56 246 0.0 1.0 0.00 0.00 0.42 99 1006.7
20260506102708 57 254 2.0 2.0 0.00 0.00 0.42 99 1007.1
20260506102109 57 198 1.0 2.0 0.00 0.00 0.41 99 1007.1
20260506100950 57 246 2.0 8.0 0.00 0.00 0.41 99 1006.7
20260506095711 57 125 1.0 3.0 0.00 0.00 0.41 99 1007.1
20260506095149 57 245 2.0 4.0 0.00 0.00 0.41 99 1007.1
20260506094538 57 348 1.0 3.0 0.00 0.00 0.41 99 1006.7
20260506093321 57 278 1.0 2.0 0.00 0.00 0.41 99 1007.1
20260506092747 57 211 0.0 2.0 0.00 0.00 0.41 99 1007.1
20260506092113 57 72 1.0 4.0 0.00 0.00 0.40 99 1007.1
20260506090323 57 190 1.0 2.0 0.00 0.00 0.38 99 1007.1
20260506085736 57 170 1.0 4.0 0.00 0.00 0.38 99 1007.1
20260506085114 57 185 1.0 3.0 0.00 0.00 0.38 99 1007.1
20260506083926 57 259 3.0 4.0 0.00 0.00 0.37 99 1007.1
20260506083337 57 232 4.0 6.0 0.00 0.00 0.37 99 1007.1
20260506082737 57 241 2.0 3.0 0.00 0.00 0.36 99 1007.1
20260506082142 57 255 4.0 10.0 0.00 0.00 0.36 99 1007.1
20260506081514 57 265 2.0 6.0 0.00 0.00 0.35 99 1007.1
20260506080930 57 146 2.0 6.0 0.00 0.00 0.35 99 1007.1
20260506080318 57 205 2.0 7.0 0.00 0.00 0.34 99 1007.1
20260506073309 57 171 1.0 2.0 0.00 0.00 0.31 99 1007.4
20260506072709 57 253 0.0 2.0 0.00 0.00 0.28 99 1007.1
20260506072143 57 233 0.0 3.0 0.00 0.00 0.26 99 1007.4
20260506071550 57 232 1.0 3.0 0.00 0.00 0.24 99 1007.4
20260506070907 57 241 1.0 4.0 0.00 0.00 0.23 99 1007.4
20260506070330 57 204 1.0 4.0 0.00 0.00 0.22 99 1007.4
20260506062127 57 205 0.0 0.0 0.00 0.00 0.17 99 1007.1
20260506061510 57 120 0.0 0.0 0.00 0.00 0.17 99 1007.1
20260506060342 57 141 0.0 0.0 0.00 0.00 0.14 99 1007.7
20260506050949 58 223 0.0 1.0 0.00 0.00 0.12 99 1008.1
20260506050336 58 185 0.0 2.0 0.00 0.00 0.11 99 1008.4
20260506044516 58 154 0.0 2.0 0.00 0.00 0.07 99 1009.1
20260506043920 58 137 2.0 2.0 0.00 0.00 0.05 98 1009.1
20260506042725 58 265 1.0 4.0 0.00 0.00 0.02 98 1009.1
20260506042128 59 276 2.0 3.0 0.00 0.00 0.01 97 1009.4
20260506041543 59 280 1.0 2.0 0.00 0.00 0.00 97 1009.4
20260506040349 59 203 0.0 0.0 0.00 0.00 0.03 96 1008.8
20260506035712 59 199 0.0 0.0 0.00 0.00 0.03 95 1008.8
20260506035141 60 239 0.0 0.0 0.00 0.00 0.02 95 1008.8
20260506033948 60 240 0.0 1.0 0.00 0.00 0.02 94 1008.8
20260506033317 60 218 0.0 0.0 0.00 0.00 0.02 93 1008.8
20260506032715 60 197 0.0 1.0 0.00 0.00 0.02 93 1009.1
20260506032147 60 204 0.0 0.0 0.00 0.00 0.02 92 1008.8
20260506031550 60 189 1.0 2.0 0.00 0.00 0.02 92 1009.1
20260506030914 60 149 2.0 2.0 0.00 0.00 0.02 91 1008.8
20260506030347 60 199 0.0 1.0 0.00 0.00 0.02 90 1008.8
20260506025746 61 198 0.0 1.0 0.00 0.00 0.02 88 1008.8
20260506025129 62 150 1.0 2.0 0.00 0.00 0.02 86 1009.1
20260506024518 62 202 1.0 2.0 0.00 0.00 0.01 83 1009.1
20260506023916 64 227 1.0 2.0 0.00 0.00 0.01 79 1009.1
20260506023351 64 219 3.0 6.0 0.00 0.00 0.00 76 1009.4
20260506022716 65 213 3.0 6.0 0.00 0.00 0.00 73 1009.1
20260506022143 66 242 1.0 6.0 0.00 0.00 0.00 72 1009.1
20260506021545 66 177 2.0 6.0 0.00 0.00 0.00 70 1009.1
20260506020946 67 291 1.0 3.0 0.00 0.00 0.00 69 1009.1
20260506020334 67 210 1.0 4.0 0.00 0.00 0.00 68 1008.8
20260506015719 67 262 1.0 3.0 0.00 0.00 0.00 67 1009.1
20260506015150 67 240 2.0 2.0 0.00 0.00 0.00 67 1008.8
20260506014532 67 27 1.0 2.0 0.00 0.00 0.00 66 1008.8
20260506013937 68 283 2.0 2.0 0.00 0.00 0.00 66 1008.8
20260506013345 68 234 2.0 6.0 0.00 0.00 0.00 65 1008.8
20260506012147 68 123 2.0 7.0 0.00 0.00 0.00 65 1009.1
20260506010911 68 128 3.0 7.0 0.00 0.00 0.00 64 1008.8
20260506003348 68 19 2.0 3.0 0.00 0.00 0.00 63 1008.4
20260506002745 68 273 1.0 3.0 0.00 0.00 0.00 63 1008.8
20260506002128 69 244 1.0 10.0 0.00 0.00 0.00 62 1008.8
20260506001517 69 266 4.0 6.0 0.00 0.00 0.00 62 1008.8
20260506000919 69 245 2.0 6.0 0.00 0.00 0.00 62 1008.8
20260506000349 69 215 3.0 3.0 0.00 0.00 0.00 62 1008.8
20260505235739 69 261 6.0 10.0 0.00 0.00 0.00 62 1008.8